Temp
63 64 67 68 68 68 68 68 69 69 69 69 69 70 70 71 70 71 71 71 71 71 70 70 71 70 69 69 68 70 67 66
62 61 62 60 60 68 68 68 69 70 71 69 69 69 71 71 70 70 71 71 71 71 70 71 71 71 70 70 69 69 65 64
63 62 62 61 61 66 68 70 69 69 68 70 66 61 63 66 69 70 72 72 71 71 71 70 69 69 69 69 70 68 66 63
61 61 61 62 70 61 59 65 62 62 63 62 61 61 64 68 68 70 70 70 70 71 70 69 68 65 66 67 65 66 65 63
63 62 60 60 61 59 58 58 58 59 61 60 61 62 61 61 60 62 62 67 64 67 65 63 64 63 63 63 64 64 60 60
61 61 61 60 59 58 58 59 59 59 59 61 59 58 59 59 59 60 61 60 60 62 61 65 62 64 64 64 64 63 61 60
60 60 60 59 60 58 58 58 58 58 59 60 59 58 57 59 58 59 59 60 62 61 62 63 63 62 63 65 63 64 64 61
60 60 59 60 59 59 58 58 59 59 59 60 60 58 57 58 58 59 58 58 60 57 59 59 60 59 63 63 62 62 63 64
60 59 60 60 59 59 58 59 60 58 59 60 61 59 58 57 57 58 55 57 57 57 58 58 59 60 61 61 61 63 61 63
62 68 60 59 59 59 61 59 58 58 58 59 61 61 60 57 56 56 56 56 57 54 54 55 54 55 56 58 59 60 60 61
59 60 59 59 59 58 59 60 60 58 58 58 61 61 60 57 56 54 55 54 53 53 52 49 50 54 59 58 55 57 57 63
60 60 59 59 58 59 59 58 58 59 58 59 60 59 59 56 55 54 54 52 51 50 50 52 49 50 58 56 52 53 56 57
60 59 59 58 57 56 55 56 57 57 58 60 59 58 58 55 53 53 52 51 50 51 49 48 48 51 47 51 50 52 54 56
61 61 59 59 59 58 58 58 57 57 58 58 58 57 56 57 53 52 51 50 50 48 48 46 46 48 44 44 42 46 52 54
62 61 61 60 60 59 58 58 57 56 55 55 56 57 56 55 54 52 50 49 48 47 47 46 43 45 46 44 39 37 44 48
63 61 62 62 60 59 59 57 56 56 54 54 54 56 55 55 54 52 50 49 47 48 49 45 44 42 44 49 43 41 37 38
62 60 63 62 60 60 59 56 55 57 56 53 53 53 54 55 53 51 49 48 47 47 45 45 44 43 43 42 42 41 41 37
60 60 62 61 61 59 59 58 56 54 52 51 51 51 51 53 53 50 49 48 48 47 46 46 45 44 44 43 41 39 38 37
60 60 60 60 60 60 60 59 57 54 54 53 52 51 49 50 51 49 49 49 49 48 47 46 45 43 43 42 43 42 42 41
65 60 60 60 60 60 60 59 57 56 56 58 56 52 49 50 49 50 50 50 49 47 45 45 45 43 43 42 43 42 43 42
MSLP
1024.27 1024.26 1024.35 1024.43 1024.38 1024.20 1024.16 1024.12 1024.03 1024.03 1024.13 1024.26 1024.21 1023.90 1023.67 1023.56 1023.44 1023.30 1023.14 1022.85 1022.56 1022.34 1022.13 1021.93 1021.52 1021.35 1021.19 1020.81 1020.45 1020.44 1020.98 1021.24
1024.24 1024.39 1024.55 1024.70 1024.64 1024.43 1024.37 1024.35 1024.22 1024.11 1024.10 1024.13 1024.14 1023.98 1023.71 1023.64 1023.52 1023.34 1023.17 1022.90 1022.66 1022.48 1022.27 1021.95 1021.75 1021.62 1021.43 1021.10 1021.01 1021.13 1021.31 1021.33
1024.15 1024.39 1024.56 1024.62 1024.55 1024.49 1024.48 1024.43 1024.40 1024.34 1024.21 1024.02 1024.22 1024.33 1024.07 1023.90 1023.72 1023.59 1023.32 1023.09 1022.91 1022.69 1022.39 1022.16 1021.99 1021.92 1021.73 1021.57 1021.42 1021.68 1021.82 1021.89
1024.37 1024.44 1024.70 1024.66 1024.36 1024.76 1024.94 1024.68 1024.64 1024.61 1024.48 1024.36 1024.33 1024.29 1024.12 1024.02 1023.97 1023.86 1023.75 1023.47 1023.28 1023.03 1022.84 1022.69 1022.44 1022.28 1022.20 1022.05 1022.08 1022.09 1022.29 1022.32
1024.11 1024.31 1024.54 1024.64 1024.70 1025.02 1025.14 1025.14 1025.10 1025.02 1024.88 1024.76 1024.60 1024.56 1024.49 1024.44 1024.41 1024.31 1024.24 1024.04 1023.85 1023.57 1023.35 1023.20 1023.02 1022.81 1022.52 1022.39 1022.30 1022.41 1022.53 1022.62
1024.54 1024.47 1024.42 1024.78 1025.02 1025.10 1025.26 1025.33 1025.33 1025.42 1025.28 1025.15 1025.24 1025.28 1025.13 1025.08 1025.04 1024.83 1024.59 1024.56 1024.45 1024.23 1024.06 1023.60 1023.40 1023.25 1023.11 1022.80 1022.42 1022.34 1022.46 1022.51
1024.74 1024.77 1024.77 1025.00 1025.12 1025.36 1025.52 1025.69 1025.75 1025.70 1025.59 1025.49 1025.51 1025.71 1025.70 1025.47 1025.45 1025.34 1025.28 1025.06 1025.04 1024.87 1024.55 1024.33 1023.95 1023.60 1023.28 1023.01 1022.84 1022.51 1022.26 1022.44
1024.24 1024.61 1024.94 1024.85 1025.29 1025.56 1025.76 1025.81 1025.85 1025.93 1025.98 1025.93 1025.82 1025.92 1026.00 1025.81 1025.89 1025.89 1025.79 1025.70 1025.61 1025.53 1025.36 1025.07 1024.76 1024.35 1023.78 1023.55 1023.31 1023.06 1022.66 1022.15
1024.08 1024.65 1024.78 1024.99 1025.38 1025.58 1025.80 1025.76 1025.88 1026.11 1026.22 1026.13 1026.11 1026.19 1026.30 1026.17 1026.34 1026.38 1026.40 1026.17 1026.08 1025.88 1025.71 1025.50 1025.22 1024.84 1024.37 1024.00 1023.75 1023.21 1022.89 1022.45
1024.16 1024.18 1024.95 1025.21 1025.32 1025.36 1025.54 1025.78 1026.00 1026.18 1026.26 1026.44 1026.31 1026.31 1026.30 1026.38 1026.75 1026.95 1026.80 1026.74 1026.70 1026.66 1026.57 1026.36 1026.11 1025.62 1025.05 1024.45 1024.17 1023.62 1023.23 1023.05
1024.39 1024.68 1025.08 1025.15 1025.32 1025.46 1025.49 1025.63 1025.87 1026.30 1026.43 1026.54 1026.47 1026.69 1026.78 1026.91 1027.10 1027.29 1027.13 1027.21 1027.28 1027.20 1027.01 1026.99 1026.69 1026.24 1025.58 1024.97 1024.74 1024.40 1024.10 1023.56
1024.30 1024.75 1025.12 1025.14 1025.47 1025.52 1025.66 1025.84 1026.06 1026.32 1026.51 1026.74 1026.87 1027.06 1027.21 1027.34 1027.53 1027.62 1027.67 1027.76 1027.76 1027.66 1027.60 1027.17 1027.18 1026.93 1026.19 1025.53 1024.92 1024.81 1024.57 1024.43
1024.17 1024.64 1025.04 1025.37 1025.56 1025.79 1025.98 1026.11 1026.35 1026.57 1026.57 1026.81 1027.11 1027.33 1027.46 1027.68 1027.95 1028.02 1028.06 1028.18 1028.16 1028.03 1027.92 1027.77 1027.62 1027.34 1026.91 1026.19 1025.36 1024.89 1024.97 1024.95
1023.68 1024.30 1024.79 1025.16 1025.40 1025.62 1025.71 1025.76 1026.34 1026.46 1026.69 1027.07 1027.33 1027.54 1027.70 1027.93 1028.30 1028.39 1028.39 1028.39 1028.48 1028.55 1028.43 1028.51 1028.34 1028.04 1028.22 1027.40 1026.82 1025.90 1025.58 1025.44
1023.15 1023.88 1024.42 1024.85 1025.01 1025.34 1025.56 1025.81 1026.29 1026.80 1027.08 1027.32 1027.53 1027.61 1027.90 1028.19 1028.39 1028.53 1028.58 1028.61 1028.89 1028.96 1028.99 1028.91 1028.91 1028.62 1028.54 1028.77 1028.45 1027.98 1027.02 1025.95
1022.36 1023.23 1023.97 1024.41 1024.66 1025.25 1025.43 1025.93 1026.34 1026.59 1026.96 1027.28 1027.53 1027.62 1027.97 1028.18 1028.41 1028.56 1028.67 1028.81 1029.03 1029.05 1029.02 1029.21 1029.15 1029.24 1028.90 1028.96 1029.02 1029.03 1028.44 1027.33
1021.89 1022.63 1023.52 1024.01 1024.53 1024.96 1025.04 1025.62 1025.89 1026.22 1026.83 1027.35 1027.56 1027.70 1027.83 1028.06 1028.36 1028.59 1028.83 1028.98 1029.09 1029.22 1029.32 1029.34 1029.35 1029.35 1029.37 1029.22 1029.17 1029.00 1028.72 1028.72
1021.61 1022.30 1023.15 1023.73 1024.18 1024.73 1025.12 1025.44 1026.09 1026.69 1027.02 1027.36 1027.51 1027.66 1028.01 1028.14 1028.39 1028.63 1028.83 1028.97 1029.09 1029.16 1029.16 1029.16 1029.23 1029.14 1029.07 1029.13 1029.24 1029.18 1028.94 1028.65
1021.44 1022.02 1022.89 1023.36 1023.89 1024.43 1024.90 1025.23 1025.80 1026.16 1026.58 1026.77 1027.17 1027.84 1028.43 1028.54 1028.61 1028.82 1028.92 1028.93 1028.93 1028.93 1028.96 1028.95 1028.93 1028.96 1028.96 1028.89 1028.74 1028.70 1028.40 1028.22
1020.96 1021.65 1022.46 1022.97 1023.57 1024.11 1024.55 1025.17 1025.51 1026.03 1026.49 1026.87 1027.50 1027.95 1028.48 1028.69 1028.84 1028.80 1028.80 1028.84 1028.83 1028.78 1028.84 1028.78 1028.62 1028.64 1028.56 1028.42 1028.30 1028.10 1027.83 1027.70
Wind_Speed
6 7 10 11 9 10 9 8 7 7 8 7 7 6 8 7 7 7 7 9 11 12 12 13 16 10 13 14 15 14 10 7
7 7 6 6 3 6 7 7 6 5 5 8 6 1 8 7 7 7 9 8 10 12 13 14 17 17 13 16 13 13 9 7
7 6 6 6 5 4 5 5 2 4 8 7 4 1 3 4 3 7 13 15 9 11 10 12 13 14 16 17 13 5 7 5
7 4 3 5 3 4 3 5 5 6 5 6 4 6 5 6 6 9 10 15 15 11 14 11 8 5 5 9 5 5 5 4
7 5 5 4 5 4 2 3 3 4 7 5 6 5 5 5 4 5 5 10 6 9 9 5 6 5 5 5 5 5 3 3
6 5 4 6 4 4 4 4 4 4 5 7 5 4 5 5 4 5 5 4 7 7 6 9 8 7 7 7 5 4 2 2
8 5 4 5 7 4 4 5 4 4 5 6 5 5 5 5 5 5 5 6 8 8 8 9 9 8 7 9 7 5 5 3
9 7 5 7 5 5 4 5 5 5 4 5 7 5 4 5 5 6 5 6 7 6 8 7 8 6 10 11 8 6 5 3
9 8 7 7 6 4 4 4 5 5 4 6 7 6 6 5 5 6 4 6 8 7 9 8 8 7 9 8 8 10 5 6
8 8 8 6 6 5 4 5 4 4 4 4 6 6 6 6 5 6 5 6 7 5 6 7 6 7 7 7 8 9 10 7
7 9 8 7 5 5 4 5 5 4 4 4 5 7 8 5 5 5 6 5 5 5 5 4 4 8 7 8 6 7 7 8
10 7 8 6 5 4 2 2 3 5 4 5 7 5 7 6 5 6 6 5 5 4 5 6 3 5 6 8 6 4 7 10
10 9 7 4 2 3 1 3 3 3 5 7 7 6 7 7 5 5 5 5 5 5 4 6 4 9 4 7 4 4 7 11
11 11 8 5 4 3 3 3 3 3 4 6 6 7 6 6 6 5 6 4 6 6 6 4 3 5 4 3 5 5 9 9
13 12 10 7 8 2 1 5 4 3 3 4 4 7 6 6 6 5 5 4 4 4 5 6 4 4 7 3 5 4 8 4
13 12 12 8 7 4 6 5 5 3 4 4 5 7 6 6 4 4 5 4 5 4 4 3 4 4 4 5 2 1 3 6
12 11 13 8 7 5 5 3 2 5 7 7 6 5 6 6 5 5 5 4 3 5 5 5 2 1 1 2 2 3 2 1
9 10 12 8 8 7 5 6 7 6 5 5 4 4 4 5 5 5 4 4 3 2 3 4 4 2 1 1 1 2 4 3
10 10 8 9 9 7 6 3 8 9 7 5 5 3 3 4 4 4 3 3 2 1 0 2 3 2 3 3 2 3 3 3
13 10 8 9 9 8 6 4 4 4 4 7 6 5 4 4 4 4 4 3 3 3 2 3 5 4 6 5 4 5 4 4
Wind_Direction
122 106 101 94 96 97 92 85 83 83 87 83 73 78 76 66 49 33 30 6 358 352 358 355 356 338 335 333 338 50 67 54
140 140 128 117 106 113 105 84 54 41 46 145 141 85 82 64 38 1 355 360 350 348 5 32 25 20 10 14 13 70 69 59
104 116 132 155 146 148 101 92 88 360 37 59 121 183 327 35 7 356 12 28 354 343 21 36 34 21 12 17 28 52 68 45
98 54 64 186 138 105 122 87 62 42 37 55 47 34 30 33 1 2 350 32 24 12 11 21 24 37 19 17 22 47 53 53
106 76 38 54 86 124 109 84 67 35 28 36 40 31 27 28 31 31 27 22 18 15 6 17 19 14 29 28 25 44 65 54
110 92 59 36 74 81 98 89 72 55 36 42 43 26 32 27 28 24 32 17 14 17 9 9 7 18 15 1 22 41 86 80
123 124 101 102 81 76 85 81 73 56 39 38 44 35 39 41 23 24 26 30 23 17 14 6 4 360 12 5 344 13 46 92
139 126 106 108 108 110 107 99 95 73 57 49 42 44 39 52 35 18 31 36 24 19 11 6 2 353 4 358 1 358 339 28
129 130 127 127 140 140 136 142 120 109 83 55 43 35 32 68 45 27 17 40 25 21 13 7 8 357 357 359 351 341 339 328
145 139 150 152 150 134 124 135 134 129 109 84 53 39 42 64 52 26 23 46 32 20 14 5 357 1 341 345 347 340 339 4
144 147 158 166 134 136 139 124 126 120 106 81 67 49 41 59 56 31 34 48 29 22 6 17 1 356 345 344 343 352 12 13
146 147 155 147 136 116 115 90 106 120 112 81 68 54 57 57 48 39 35 44 26 18 19 2 3 342 343 341 322 358 22 10
153 144 161 141 143 144 177 188 122 111 96 92 79 65 57 58 57 41 34 52 30 26 4 10 350 352 3 339 325 346 20 5
156 158 161 168 169 197 178 173 113 124 113 100 95 82 73 70 65 46 36 54 33 29 32 3 350 7 3 321 342 331 8 335
163 163 169 170 204 184 79 80 85 92 105 106 111 99 86 82 69 61 43 65 48 37 27 23 2 341 16 40 347 336 325 335
163 158 171 184 198 183 147 156 166 175 144 133 123 110 105 101 91 78 65 63 52 34 34 23 33 359 348 15 21 284 335 331
165 155 171 179 188 179 176 161 118 132 131 135 135 132 138 133 114 84 77 69 57 56 35 22 11 12 35 335 353 321 315 318
159 155 169 169 187 172 163 194 137 133 146 155 164 163 136 117 106 87 89 71 60 59 53 13 341 316 315 15 284 266 293 286
163 155 157 167 174 174 176 257 160 158 166 179 159 127 122 103 93 73 70 50 25 19 297 287 295 276 269 258 259 257 258 268
168 156 158 162 159 175 170 137 128 138 102 87 89 112 113 98 88 66 41 8 329 304 283 271 257 271 273 255 248 253 259 250